Location: Hepcat Sky Observatory
(29.9800°N, 95.6500°W)
Time: 12:02:47
(UTC-05:00)

Daily predictions for brighter satellites

Satellite Brightness Start Highest point End
(mag) Time Altitude Azimuth Time Altitude Azimuth Time Altitude Azimuth
BREEZE-M DEB (TANK) 3.7 20:01:08 10° WSW 20:03:57 62° NW 20:11:31 10° NE
DELTA 2 R/B (1) 4.4 20:03:22 10° NW 20:08:37 40° NNE 20:13:50 10° E
Helios 1A 3.3 20:07:28 10° SSE 20:11:27 47° ENE 20:15:29 10° N
Cosmos 2369 4.3 20:07:11 10° SSW 20:12:47 65° WNW 20:18:27 10° NNE
Meteor 1-29 2.9 20:10:02 10° NNE 20:13:30 78° ESE 20:16:59 10° S
Meteor 2-4 Rocket 3.9 20:07:36 10° N 20:13:32 88° W 20:19:28 10° S
Resurs 01 Rocket 1.8 20:10:18 10° SSE 20:14:37 55° ENE 20:18:57 10° N
BREEZE-M DEB (TANK) 3.6 20:04:30 10° NW 20:15:56 71° SW 20:19:22 10° SE
H-2A R/B 4.4 20:13:53 10° ESE 20:16:25 17° ENE 20:18:58 10° NNE
Cosmos 1656 3.6 20:11:52 10° S 20:17:29 73° ESE 20:23:02 10° NNE
Meteor 2-16 Rocket 4.5 20:11:42 10° S 20:17:46 89° E 20:23:52 10° N
Cosmos 1461 2.8 20:14:51 10° NNW 20:18:48 63° ENE 20:22:40 10° SE
NOSS 3-4 (A) 3.9 20:13:11 10° NNW 20:20:22 80° ENE 20:27:57 10° SSE
NOSS 3-4 (C) 3.9 20:13:19 10° NNW 20:20:30 79° ENE 20:28:05 10° SSE
CZ-4B DEB 3.9 20:18:37 10° SE 20:21:24 26° ENE 20:24:13 10° NNE
CZ-3A R/B 4.5 20:11:32 10° W 20:28:50 33° SW 20:33:07 10° SSE
Cosmos 1500 3.6 20:33:53 10° SSE 20:37:22 37° E 20:40:52 10° NNE
Lacrosse 5 3.3 20:35:13 10° N 20:39:12 23° NE 20:41:56 15° E
Spot 2 Rocket 3.7 20:34:17 10° S 20:39:21 75° WSW 20:44:26 10° NNW
Fermi 4.3 20:35:30 10° WSW 20:39:25 45° S 20:42:00 19° ESE
Iridium 4 Rocket 3.8 20:36:25 10° NNE 20:40:40 33° E 20:44:11 12° SE
Cosmos 1975 2.8 20:36:50 10° S 20:40:55 78° E 20:45:01 10° N
Cosmos 2322 Rocket 3.8 20:43:34 14° E 20:43:34 14° E 20:45:05 10° ENE
CZ-2D R/B 3.8 20:39:07 12° SE 20:42:20 39° ENE 20:45:59 10° N
EO 1 Delta rocket 4.2 20:38:23 10° NNE 20:43:26 71° E 20:49:39 10° S
Cosmos 2227 Rocket 2.2 20:38:39 10° NNW 20:44:20 86° WSW 20:49:58 10° SSE
OTV 4 0.5 20:43:15 10° WNW 20:46:11 65° SSW 20:47:34 27° SE
Lacrosse 5 rocket 0.9 20:44:53 10° NW 20:48:34 90° ESE 20:50:50 21° SE
Hubble Space Telescope 3.2 20:47:12 10° WSW 20:49:30 14° SSW 20:51:47 10° S
Cosmos 2084 4.0 20:45:56 10° NNW 20:49:52 40° ENE 20:51:53 24° ESE
Cosmos 2173 Rocket 4.4 20:46:50 10° SSE 20:52:43 41° E 20:58:35 10° NNE
USA 186 2.1 20:53:34 35° ESE 20:54:07 38° ENE 20:56:49 10° N
FengYun 1-2 T 4.4 20:49:08 10° S 20:54:46 81° WSW 21:00:24 10° NNW
Cosmos 1937 Rocket 4.3 20:51:27 10° N 20:56:10 32° ENE 20:58:05 25° ESE
Cosmos 2297 Rocket 2.2 20:53:21 10° NNW 20:59:02 89° ENE 21:04:18 12° SSE
Cosmos 2360 4.3 20:55:52 10° S 21:01:21 50° ESE 21:06:52 10° NNE
Cosmos 1626 Rocket 3.4 20:57:07 10° N 21:01:29 85° E 21:05:48 10° S
ALOS 2.2 20:56:52 10° SSE 21:01:32 86° E 21:06:14 10° N
Cosmos 2082 4.1 20:56:18 10° NNW 21:01:50 63° WSW 21:07:23 10° S
Cosmos 220 Rocket 3.9 20:58:30 10° NNW 21:02:43 85° WSW 21:05:52 17° SSE
Cosmos 2298 Rocket 4.0 20:59:34 10° N 21:04:51 64° ENE 21:08:05 24° SSE
Cosmos 1515 3.5 21:04:12 10° N 21:08:01 73° E 21:09:45 31° SSE
ERS-1 Rocket 3.8 21:08:47 29° E 21:09:30 31° ENE 21:13:52 10° N
OAO 2 Rocket 3.9 21:05:15 10° WNW 21:10:06 50° N 21:12:34 27° ENE
Cosmos 2100 Rocket 3.9 21:05:03 10° S 21:11:17 68° E 21:17:27 10° NNE
Cosmos 1602 Rocket 3.8 21:07:47 10° N 21:12:12 70° W 21:16:32 10° S
Cosmos 1763 Rocket 3.3 21:16:45 10° SSW 21:21:52 87° ESE 21:26:57 10° NNE
Cosmos 1743 2.6 21:20:18 35° S 21:21:52 82° E 21:25:47 10° N
Tiangong 1 3.2 21:19:41 10° NNW 21:21:38 18° NNE 21:21:38 18° NNE
Cosmos 1939 Rocket 4.2 21:23:17 27° NE 21:23:17 27° NE 21:25:51 10° NNE
Cosmos 1697 Rocket 4.3 21:21:06 10° SW 21:26:13 36° WNW 21:31:23 10° N
Cosmos 2061 Rocket 3.9 21:21:30 10° S 21:27:49 85° E 21:34:06 10° N
Cosmos 2150 Rocket 3.9 21:24:33 10° NNW 21:29:44 84° WSW 21:31:50 37° S
Cosmos 1459 Rocket 3.9 21:28:33 10° S 21:34:35 81° W 21:40:42 10° N
Cosmos 1606 Rocket 3.4 21:38:26 77° S 21:38:46 90° WSW 21:43:13 10° N
Cosmos 2058 Rocket 4.4 21:40:58 28° NNE 21:40:58 28° NNE 21:43:15 10° NNE
Cosmos 1066 Rocket 4.4 21:33:56 10° NNW 21:39:40 73° W 21:43:02 26° S
Cosmos 1898 Rocket 3.9 21:34:37 10° NNW 21:39:49 61° WSW 21:42:03 33° S
SL-16 R/B 2.7 21:41:43 42° ENE 21:41:43 42° ENE 21:45:43 10° NNE
Cosmos 1725 Rocket 4.1 21:42:59 51° E 21:42:59 51° E 21:48:46 10° NNE
Cosmos 2098 Rocket 4.0 21:43:33 44° SSE 21:45:40 65° E 21:51:31 10° NNE
Cosmos 841 Rocket 4.0 21:42:01 10° SSW 21:47:10 60° WNW 21:52:20 10° N
Cosmos 1980 Rocket 3.6 21:45:30 10° SW 21:50:42 37° WNW 21:55:58 10° N
RESURS DK-1 3.1 21:50:40 10° NNW 21:54:08 50° WNW 21:54:08 50° WNW
DELTA 2 R/B (1) 3.5 21:49:46 10° WNW 21:55:19 73° SSW 21:55:21 73° SSW
Cosmos 1726 Rocket 4.4 22:01:45 49° NW 22:01:45 49° NW 22:05:19 10° N
CZ-3 Stage 3 4.0 21:07:28 10° WNW 22:03:17 70° SSW 22:05:23 53° SE
Milstar 3 Cent rocket 4.0 21:52:42 10° W 22:15:07 74° SSW 22:18:32 54° SE
Cosmos 2263 Rocket 4.1 22:16:28 10° N 22:18:17 18° NNE 22:18:17 18° NNE
Lacrosse 5 3.1 22:17:29 10° NW 22:21:09 38° W 22:21:09 38° W
SPOT 5 4.5 22:27:02 30° N 22:27:02 30° N 22:29:23 10° NNW
Cosmos 2322 Rocket 2.9 22:25:06 50° W 22:25:27 51° WNW 22:30:55 10° N
Envisat 4.1 22:29:51 40° WNW 22:29:51 40° WNW 22:33:37 10° NNW
